GAP2134 RPVB-RPLL

Flight info

Callsign GAP2134
Flight time 0h 46m
Altitude 33000
Route GLA2A GALIA TR8 KLO TR19 MINOR B473 LAIYA LAIYA7R
Aircraft A321/M-SDE3FGHIRWY/LB1

Departure

Time 2026-05-08 04:35
Airport Bacolod-Silay International Airport (RPVB)

Arrival

Time 2026-05-08 05:22
Airport Ninoy Aquino International Airport (RPLL)
Time Latitude Longitude Altitude Speed Heading
2026-05-08 03:58 10.77672 123.01582 37 ft 0 kts 299°
2026-05-08 04:25 10.77671 123.01585 37 ft 2 kts 299°
2026-05-08 04:26 10.77663 123.01598 37 ft 2 kts 298°
2026-05-08 04:26 10.77656 123.01612 37 ft 2 kts 299°
2026-05-08 04:26 10.77648 123.01625 37 ft 2 kts 299°
2026-05-08 04:26 10.77644 123.01633 37 ft 1 kts 288°
2026-05-08 04:27 10.77645 123.01643 37 ft 1 kts 226°
2026-05-08 04:27 10.77651 123.01647 37 ft 1 kts 203°
2026-05-08 04:27 10.77654 123.01649 37 ft 0 kts 208°
2026-05-08 04:30 10.77642 123.01643 37 ft 4 kts 208°
2026-05-08 04:30 10.77607 123.01622 37 ft 6 kts 211°
2026-05-08 04:30 10.77555 123.01591 37 ft 13 kts 210°
2026-05-08 04:31 10.77475 123.01543 37 ft 12 kts 210°
2026-05-08 04:31 10.77400 123.01510 37 ft 8 kts 181°
2026-05-08 04:31 10.77349 123.01540 37 ft 8 kts 123°
2026-05-08 04:31 10.77323 123.01584 37 ft 3 kts 120°
2026-05-08 04:32 10.77313 123.01604 37 ft 3 kts 119°
2026-05-08 04:32 10.77299 123.01627 37 ft 7 kts 122°
2026-05-08 04:32 10.77227 123.01658 37 ft 13 kts 197°
2026-05-08 04:32 10.77142 123.01610 37 ft 14 kts 211°
2026-05-08 04:33 10.77056 123.01558 37 ft 14 kts 210°
2026-05-08 04:33 10.76972 123.01510 37 ft 9 kts 210°
2026-05-08 04:33 10.76927 123.01459 37 ft 9 kts 217°
2026-05-08 04:33 10.76917 123.01478 37 ft 1 kts 32°
2026-05-08 04:34 10.76920 123.01479 37 ft 6 kts 32°
2026-05-08 04:35 10.77186 123.01635 37 ft 80 kts 29°
2026-05-08 04:35 10.77871 123.02034 39 ft 142 kts 31°
2026-05-08 04:35 10.78836 123.02608 375 ft 165 kts 32°
2026-05-08 04:35 10.79799 123.03170 1127 ft 161 kts 32°
2026-05-08 04:36 10.80756 123.03735 1803 ft 158 kts 34°
2026-05-08 04:36 10.81685 123.04295 2175 ft 158 kts 34°
2026-05-08 04:36 10.82663 123.04885 2389 ft 169 kts 35°
2026-05-08 04:36 10.83713 123.05521 2621 ft 180 kts 34°
2026-05-08 04:37 10.84820 123.06190 2861 ft 192 kts 35°
2026-05-08 04:37 10.86008 123.06908 3106 ft 205 kts 34°
2026-05-08 04:37 10.87297 123.07687 3344 ft 221 kts 34°
2026-05-08 04:37 10.88667 123.08516 3557 ft 239 kts 34°
2026-05-08 04:38 10.90169 123.09363 3844 ft 257 kts 24°
2026-05-08 04:38 10.92007 123.09527 4262 ft 276 kts 349°
2026-05-08 04:38 10.93713 123.08572 4754 ft 285 kts 319°
2026-05-08 04:38 10.95009 123.07031 4983 ft 288 kts 309°
2026-05-08 04:39 10.96199 123.05402 4981 ft 287 kts 309°
2026-05-08 04:39 10.97424 123.03765 5134 ft 292 kts 310°
2026-05-08 04:39 10.98697 123.02148 5766 ft 294 kts 311°
2026-05-08 04:39 11.00002 123.00546 6505 ft 293 kts 313°
2026-05-08 04:40 11.01308 122.98978 7145 ft 295 kts 313°
2026-05-08 04:40 11.02656 122.97384 7778 ft 297 kts 313°
2026-05-08 04:40 11.04017 122.95785 8388 ft 299 kts 313°
2026-05-08 04:40 11.05369 122.94200 8978 ft 302 kts 313°
2026-05-08 04:41 11.06760 122.92574 9552 ft 304 kts 313°
2026-05-08 04:41 11.08141 122.90956 10118 ft 306 kts 313°
2026-05-08 04:41 11.09556 122.89298 10491 ft 315 kts 313°
2026-05-08 04:41 11.11032 122.87573 10731 ft 329 kts 313°
2026-05-08 04:42 11.12560 122.85789 10971 ft 342 kts 313°
2026-05-08 04:42 11.14174 122.83905 11203 ft 356 kts 313°
2026-05-08 04:42 11.15818 122.81982 11427 ft 368 kts 313°
2026-05-08 04:42 11.17523 122.79988 11709 ft 378 kts 313°
2026-05-08 04:43 11.19256 122.77956 12169 ft 381 kts 313°
2026-05-08 04:43 11.20998 122.75912 12663 ft 383 kts 313°
2026-05-08 04:43 11.22741 122.73866 13149 ft 385 kts 313°
2026-05-08 04:43 11.24509 122.71794 13620 ft 387 kts 313°
2026-05-08 04:44 11.26290 122.69707 14063 ft 390 kts 313°
2026-05-08 04:44 11.28071 122.67633 14489 ft 393 kts 315°
2026-05-08 04:44 11.30011 122.65653 14882 ft 394 kts 320°
2026-05-08 04:44 11.32129 122.63860 15284 ft 396 kts 326°
2026-05-08 04:45 11.34423 122.62196 15700 ft 397 kts 328°
2026-05-08 04:45 11.36670 122.60624 16086 ft 400 kts 328°
2026-05-08 04:45 11.38959 122.59028 16466 ft 402 kts 328°
2026-05-08 04:45 11.41276 122.57410 16842 ft 405 kts 328°
2026-05-08 04:46 11.43607 122.55776 17212 ft 407 kts 328°
2026-05-08 04:46 11.45968 122.54120 17584 ft 410 kts 328°
2026-05-08 04:46 11.48302 122.52480 17954 ft 412 kts 328°
2026-05-08 04:46 11.50675 122.50813 18321 ft 414 kts 328°
2026-05-08 04:47 11.53070 122.49126 18689 ft 415 kts 328°
2026-05-08 04:47 11.55440 122.47457 19047 ft 417 kts 328°
2026-05-08 04:47 11.57843 122.45764 19389 ft 419 kts 328°
2026-05-08 04:47 11.60250 122.44068 19720 ft 421 kts 328°
2026-05-08 04:48 11.62666 122.42366 20064 ft 423 kts 328°
2026-05-08 04:48 11.65071 122.40676 20401 ft 424 kts 328°
2026-05-08 04:48 11.67635 122.39169 20711 ft 424 kts 336°
2026-05-08 04:48 11.70365 122.38033 21032 ft 423 kts 343°
2026-05-08 04:49 11.73229 122.37254 21343 ft 423 kts 349°
2026-05-08 04:49 11.76124 122.36616 21631 ft 425 kts 350°
2026-05-08 04:49 11.79032 122.36001 21915 ft 427 kts 350°
2026-05-08 04:49 11.81937 122.35386 22192 ft 429 kts 350°
2026-05-08 04:50 11.84855 122.34763 22463 ft 431 kts 350°
2026-05-08 04:50 11.87824 122.34126 22723 ft 433 kts 349°
2026-05-08 04:50 11.90765 122.33492 22974 ft 435 kts 349°
2026-05-08 04:50 11.93755 122.32845 23225 ft 437 kts 349°
2026-05-08 04:51 11.96736 122.32198 23470 ft 439 kts 349°
2026-05-08 04:51 11.99738 122.31547 23712 ft 441 kts 349°
2026-05-08 04:51 12.02790 122.30883 23956 ft 443 kts 349°
2026-05-08 04:51 12.05779 122.30234 24186 ft 445 kts 349°
2026-05-08 04:52 12.08829 122.29570 24413 ft 447 kts 349°
2026-05-08 04:52 12.11914 122.28898 24647 ft 449 kts 349°
2026-05-08 04:52 12.14984 122.28228 24857 ft 451 kts 349°
2026-05-08 04:52 12.18047 122.27561 25065 ft 453 kts 349°
2026-05-08 04:53 12.21142 122.26886 25269 ft 455 kts 349°
2026-05-08 04:53 12.24239 122.26210 25480 ft 457 kts 349°
2026-05-08 04:53 12.27382 122.25524 25702 ft 459 kts 349°
2026-05-08 04:53 12.30514 122.24841 25919 ft 461 kts 349°
2026-05-08 04:54 12.33640 122.24101 26117 ft 463 kts 345°
2026-05-08 04:54 12.36678 122.23016 26321 ft 465 kts 338°
2026-05-08 04:54 12.39610 122.21530 26528 ft 467 kts 330°
2026-05-08 04:54 12.42348 122.19750 26753 ft 469 kts 327°
2026-05-08 04:55 12.45058 122.17872 26969 ft 470 kts 326°
2026-05-08 04:55 12.47772 122.15968 27158 ft 472 kts 326°
2026-05-08 04:55 12.50488 122.14062 27349 ft 474 kts 326°
2026-05-08 04:55 12.53182 122.12176 27584 ft 474 kts 326°
2026-05-08 04:56 12.55913 122.10270 27876 ft 473 kts 326°
2026-05-08 04:56 12.58642 122.08368 28193 ft 472 kts 326°
2026-05-08 04:56 12.61347 122.06484 28488 ft 471 kts 326°
2026-05-08 04:56 12.64048 122.04603 28759 ft 471 kts 326°
2026-05-08 04:57 12.66795 122.02692 29049 ft 470 kts 326°
2026-05-08 04:57 12.69485 122.00821 29351 ft 469 kts 326°
2026-05-08 04:57 12.72190 121.98940 29640 ft 468 kts 325°
2026-05-08 04:57 12.74857 121.97083 29941 ft 467 kts 325°
2026-05-08 04:58 12.77561 121.95200 30249 ft 465 kts 325°
2026-05-08 04:58 12.80204 121.93359 30537 ft 464 kts 325°
2026-05-08 04:58 12.82907 121.91475 30828 ft 463 kts 325°
2026-05-08 04:58 12.85547 121.89634 31123 ft 461 kts 324°
2026-05-08 04:59 12.88194 121.87789 31423 ft 459 kts 324°
2026-05-08 04:59 12.90820 121.85958 31721 ft 457 kts 324°
2026-05-08 04:59 12.93470 121.84109 31991 ft 457 kts 324°
2026-05-08 04:59 12.96095 121.82277 32240 ft 456 kts 324°
2026-05-08 05:00 12.98702 121.80456 32509 ft 454 kts 324°
2026-05-08 05:00 13.01308 121.78636 32808 ft 453 kts 324°
2026-05-08 05:00 13.03915 121.76814 33111 ft 451 kts 324°
2026-05-08 05:00 13.06509 121.74999 33080 ft 447 kts 324°
2026-05-08 05:01 13.09086 121.73198 32326 ft 452 kts 324°
2026-05-08 05:01 13.11691 121.71373 31271 ft 462 kts 325°
2026-05-08 05:01 13.14370 121.69495 30239 ft 470 kts 325°
2026-05-08 05:01 13.17074 121.67601 29332 ft 474 kts 326°
2026-05-08 05:02 13.19800 121.65694 28469 ft 477 kts 326°
2026-05-08 05:02 13.22538 121.63781 27603 ft 479 kts 326°
2026-05-08 05:02 13.25308 121.61848 26753 ft 480 kts 326°
2026-05-08 05:02 13.28060 121.59924 25915 ft 480 kts 326°
2026-05-08 05:03 13.30819 121.57994 25202 ft 477 kts 326°
2026-05-08 05:03 13.33520 121.56103 24684 ft 470 kts 327°
2026-05-08 05:03 13.36229 121.54203 24087 ft 465 kts 327°
2026-05-08 05:03 13.38865 121.52354 23464 ft 461 kts 327°
2026-05-08 05:04 13.41530 121.50485 22839 ft 457 kts 327°
2026-05-08 05:04 13.44111 121.48673 22411 ft 449 kts 327°
2026-05-08 05:04 13.46672 121.46875 21990 ft 441 kts 327°
2026-05-08 05:04 13.49180 121.45112 21594 ft 433 kts 327°
2026-05-08 05:05 13.51661 121.43367 21213 ft 425 kts 327°
2026-05-08 05:05 13.54062 121.41680 20820 ft 418 kts 327°
2026-05-08 05:05 13.56451 121.40001 20470 ft 411 kts 327°
2026-05-08 05:05 13.58774 121.38339 20077 ft 405 kts 326°
2026-05-08 05:06 13.61045 121.36654 19716 ft 400 kts 326°
2026-05-08 05:06 13.63315 121.34956 19325 ft 394 kts 326°
2026-05-08 05:06 13.65492 121.33327 18943 ft 389 kts 326°
2026-05-08 05:06 13.67692 121.31682 18581 ft 383 kts 326°
2026-05-08 05:07 13.69808 121.30101 18234 ft 378 kts 326°
2026-05-08 05:07 13.71944 121.28506 17897 ft 373 kts 326°
2026-05-08 05:07 13.74027 121.26952 17574 ft 367 kts 326°
2026-05-08 05:07 13.76080 121.25421 17261 ft 362 kts 326°
2026-05-08 05:08 13.78120 121.23898 16954 ft 357 kts 326°
2026-05-08 05:08 13.80120 121.22405 16651 ft 352 kts 326°
2026-05-08 05:08 13.82092 121.20933 16340 ft 347 kts 326°
2026-05-08 05:08 13.84037 121.19480 16054 ft 343 kts 326°
2026-05-08 05:09 13.85940 121.18059 15766 ft 338 kts 326°
2026-05-08 05:09 13.87820 121.16654 15473 ft 333 kts 326°
2026-05-08 05:09 13.89697 121.15252 15194 ft 328 kts 326°
2026-05-08 05:09 13.91530 121.13880 14906 ft 324 kts 326°
2026-05-08 05:10 13.93350 121.12517 14604 ft 319 kts 326°
2026-05-08 05:10 13.96909 121.09856 13966 ft 313 kts 326°
2026-05-08 05:10 13.98655 121.08549 13583 ft 311 kts 326°
2026-05-08 05:11 14.00406 121.07240 13228 ft 310 kts 326°
2026-05-08 05:11 14.02156 121.05935 12879 ft 308 kts 326°
2026-05-08 05:11 14.03891 121.04639 12531 ft 306 kts 326°
2026-05-08 05:11 14.05596 121.03365 12177 ft 304 kts 326°
2026-05-08 05:12 14.07301 121.02088 11832 ft 302 kts 326°
2026-05-08 05:12 14.09003 121.00812 11498 ft 301 kts 326°
2026-05-08 05:12 14.10703 120.99538 11155 ft 299 kts 326°
2026-05-08 05:12 14.12378 120.98283 10817 ft 298 kts 326°
2026-05-08 05:13 14.14069 120.97017 10477 ft 297 kts 326°
2026-05-08 05:13 14.15730 120.95772 10144 ft 296 kts 326°
2026-05-08 05:13 14.17411 120.94554 9718 ft 298 kts 330°
2026-05-08 05:13 14.19227 120.93441 9016 ft 311 kts 332°
2026-05-08 05:14 14.21145 120.92315 8123 ft 328 kts 332°
2026-05-08 05:14 14.23143 120.91144 7742 ft 326 kts 332°
2026-05-08 05:14 14.25099 120.89991 7429 ft 322 kts 332°
2026-05-08 05:14 14.27040 120.88843 7149 ft 316 kts 332°
2026-05-08 05:15 14.28950 120.87723 6852 ft 312 kts 333°
2026-05-08 05:15 14.30836 120.86632 6486 ft 311 kts 333°
2026-05-08 05:15 14.32753 120.85528 5726 ft 325 kts 333°
2026-05-08 05:15 14.34722 120.84390 5171 ft 326 kts 333°
2026-05-08 05:16 14.35455 120.83966 4850 ft 329 kts 333°
2026-05-08 05:16 14.37084 120.83099 3009 ft 292 kts 337°
2026-05-08 05:16 14.38678 120.82420 2431 ft 251 kts 351°
2026-05-08 05:16 14.40152 120.82435 2098 ft 201 kts 25°
2026-05-08 05:17 14.41102 120.83323 1814 ft 178 kts 65°
2026-05-08 05:17 14.41554 120.84454 1513 ft 168 kts 70°
2026-05-08 05:17 14.41980 120.85549 1241 ft 163 kts 68°
2026-05-08 05:17 14.42410 120.86571 974 ft 149 kts 70°
2026-05-08 05:18 14.42848 120.87533 972 ft 148 kts 66°
2026-05-08 05:18 14.43346 120.88469 1068 ft 149 kts 62°
2026-05-08 05:18 14.43903 120.89373 1116 ft 149 kts 61°
2026-05-08 05:18 14.44464 120.90273 1262 ft 149 kts 62°
2026-05-08 05:19 14.45008 120.91177 1439 ft 149 kts 63°
2026-05-08 05:19 14.45530 120.92110 1536 ft 149 kts 64°
2026-05-08 05:19 14.46017 120.93064 1593 ft 151 kts 64°
2026-05-08 05:19 14.46526 120.94009 1447 ft 150 kts 65°
2026-05-08 05:20 14.47008 120.94967 1186 ft 149 kts 64°
2026-05-08 05:20 14.47551 120.95875 975 ft 149 kts 63°
2026-05-08 05:20 14.48039 120.96796 796 ft 148 kts 66°
2026-05-08 05:20 14.48530 120.97745 630 ft 148 kts 63°
2026-05-08 05:21 14.49039 120.98666 396 ft 148 kts 64°
2026-05-08 05:21 14.49563 120.99605 212 ft 153 kts 65°
2026-05-08 05:21 14.50069 121.00523 88 ft 140 kts 63°
2026-05-08 05:21 14.50502 121.01289 82 ft 97 kts 60°
2026-05-08 05:22 14.50748 121.01727 82 ft 34 kts 38°
2026-05-08 05:22 14.50829 121.01771 82 ft 5 kts 29°
2026-05-08 05:22 14.50839 121.01776 82 ft 1 kts 29°
2026-05-08 05:22 14.50843 121.01778 82 ft 0 kts 29°
2026-05-08 05:23 14.50852 121.01784 82 ft 0 kts 25°
2026-05-08 05:23 14.50877 121.01786 82 ft 6 kts 348°
2026-05-08 05:24 14.50900 121.01738 82 ft 10 kts 251°
2026-05-08 05:24 14.50879 121.01693 82 ft 6 kts 241°
2026-05-08 05:24 14.50854 121.01648 82 ft 7 kts 239°
2026-05-08 05:24 14.50825 121.01598 82 ft 8 kts 239°
2026-05-08 05:25 14.50794 121.01542 82 ft 9 kts 240°
2026-05-08 05:25 14.50765 121.01489 82 ft 7 kts 241°
2026-05-08 05:25 14.50736 121.01437 82 ft 8 kts 240°
2026-05-08 05:25 14.50699 121.01367 82 ft 8 kts 249°
2026-05-08 05:26 14.50717 121.01318 82 ft 6 kts 337°
2026-05-08 05:26 14.50758 121.01332 82 ft 6 kts 45°
2026-05-08 05:26 14.50769 121.01349 82 ft 0 kts 60°
2026-05-08 05:28 14.50770 121.01350 82 ft 0 kts 60°
2026-05-08 05:28 14.50776 121.01361 82 ft 0 kts 60°
2026-05-08 05:28 14.50777 121.01363 81 ft 0 kts 60°
2026-05-08 05:29 14.50787 121.01379 82 ft 1 kts 40°
2026-05-08 05:29 14.50802 121.01379 82 ft 2 kts 353°
2026-05-08 05:29 14.50826 121.01369 82 ft 4 kts 331°
2026-05-08 05:29 14.50858 121.01351 82 ft 5 kts 329°
2026-05-08 05:30 14.50877 121.01339 82 ft 1 kts 327°
2026-05-08 05:30 14.50882 121.01336 82 ft 0 kts 328°